Madison, SD

12:40 AM CDT on May 28, 2018 (GMT -0500)
Madison Municipal

Weather History for KMDS - February, 2012

Change the Weather History Date:

Tuesday, February 7, 2012

  Actual Average Record
Temperature  
Mean Temperature 20 °F -  
Max Temperature 24 °F 23 °F 48 °F (2015)
Min Temperature 15 °F 5 °F -13 °F (2011)
Degree Days  
Heating Degree Days 44    
Moisture  
Dew Point 18 °F    
Average Humidity 89    
Maximum Humidity 100    
Minimum Humidity 59    
Precipitation  
Precipitation 0.00 in - - ()
Sea Level Pressure  
Sea Level Pressure 30.44 in    
Wind  
Wind Speed 17 mph (NNE)    
Max Wind Speed 24 mph    
Max Gust Speed 28 mph    
Visibility 10 miles    
Events Rain , Snow    
Averages and records for this station are not official NWS values.
T = Trace of Precipitation, MM = Missing Value Source: NWS Daily Summary

Daily Weather History Graph

Daily Weather History Graph

Search for Another Location

Airport or City:

Astronomy

Feb. 07, 2012 Rise Set
Actual Time 7:39 AM CST 5:46 PM CST
Civil Twilight 7:08 AM CST 6:16 PM CST
Nautical Twilight 6:34 AM CST 6:50 PM CST
Astronomical Twilight 6:01 AM CST 7:24 PM CST
Moon 6:00 PM CST (2/7) 7:07 AM CST (2/7)
Length of Visible Light 11h 07m
Length of Day
10h 07m
Full, 100% of the Moon is Illuminated
Feb 7
Full
Feb 7
Full
Feb 14
Last Quarter
Feb 21
New
Feb 29
First Quarter

Hourly Weather History & Observations

Time (CST) Temp. Windchill Dew Point Humidity Pressure Visibility Wind Dir Wind Speed Gust Speed Precip Events Conditions
12:05 AM 24.8 °F 10.0 °F 24.8 °F 100% 30.31 in 10.0 mi NNE 21.9 mph 26.5 mph N/A   Overcast
12:25 AM 24.8 °F 10.3 °F 24.8 °F 100% 30.32 in 10.0 mi NE 20.7 mph 27.6 mph N/A   Overcast
12:45 AM 24.8 °F 10.0 °F 24.8 °F 100% 30.32 in 10.0 mi NNE 21.9 mph 26.5 mph N/A   Overcast
1:05 AM 24.8 °F 12.4 °F 24.8 °F 100% 30.33 in 10.0 mi NNE 15.0 mph 26.5 mph N/A   Overcast
1:25 AM 24.8 °F 10.3 °F 24.8 °F 100% 30.34 in 10.0 mi NNE 20.7 mph 27.6 mph N/A   Overcast
1:45 AM 23.0 °F 6.9 °F 23.0 °F 100% 30.34 in 10.0 mi NNE 24.2 mph 27.6 mph N/A   Overcast
2:05 AM 23.0 °F 8.7 °F 23.0 °F 100% 30.35 in 10.0 mi NNE 18.4 mph 25.3 mph N/A   Overcast
2:25 AM 23.0 °F 9.6 °F 23.0 °F 100% 30.36 in 10.0 mi NNE 16.1 mph 20.7 mph N/A   Overcast
2:45 AM 23.0 °F 9.2 °F 23.0 °F 100% 30.37 in 10.0 mi NNE 17.3 mph 23.0 mph N/A   Overcast
3:05 AM 23.0 °F 8.7 °F 23.0 °F 100% 30.37 in 10.0 mi NNE 18.4 mph - N/A   Overcast
3:25 AM 23.0 °F 9.6 °F 23.0 °F 100% 30.37 in 10.0 mi NNE 16.1 mph 26.5 mph N/A   Overcast
3:45 AM 23.0 °F 9.2 °F 23.0 °F 100% 30.38 in 10.0 mi North 17.3 mph 23.0 mph N/A   Overcast
4:05 AM 21.2 °F 6.4 °F 21.2 °F 100% 30.38 in 10.0 mi NNE 18.4 mph 23.0 mph N/A   Overcast
4:25 AM 21.2 °F 6.4 °F 21.2 °F 100% 30.38 in 10.0 mi North 18.4 mph 21.9 mph N/A   Overcast
4:45 AM 21.2 °F 7.3 °F 21.2 °F 100% 30.39 in 10.0 mi NNE 16.1 mph 20.7 mph N/A   Overcast
5:05 AM 19.4 °F 6.0 °F 19.4 °F 100% 30.40 in 10.0 mi NNE 13.8 mph 20.7 mph N/A   Overcast
5:25 AM 19.4 °F 5.5 °F 19.4 °F 100% 30.41 in 10.0 mi North 15.0 mph 18.4 mph N/A   Overcast
5:45 AM 19.4 °F 5.5 °F 19.4 °F 100% 30.42 in 10.0 mi NNE 15.0 mph - N/A   Overcast
6:05 AM 19.4 °F 5.5 °F 19.4 °F 100% 30.43 in 10.0 mi North 15.0 mph - N/A   Overcast
6:25 AM 19.4 °F 6.0 °F 19.4 °F 100% 30.43 in 10.0 mi NNE 13.8 mph - N/A   Overcast
6:45 AM 19.4 °F 4.5 °F 19.4 °F 100% 30.44 in 10.0 mi North 17.3 mph - N/A   Overcast
7:05 AM 17.6 °F 2.7 °F 17.6 °F 100% 30.45 in 10.0 mi NNE 16.1 mph - N/A   Overcast
7:25 AM 17.6 °F 2.2 °F 17.6 °F 100% 30.45 in 10.0 mi North 17.3 mph - N/A   Overcast
7:45 AM 17.6 °F 2.7 °F 17.6 °F 100% 30.46 in 10.0 mi NNE 16.1 mph - N/A   Overcast
8:05 AM 17.6 °F 2.7 °F 17.6 °F 100% 30.46 in 10.0 mi NNE 16.1 mph - N/A   Overcast
8:25 AM 17.6 °F 3.2 °F 17.6 °F 100% 30.47 in 10.0 mi NNE 15.0 mph - N/A   Overcast
8:45 AM 17.6 °F 2.2 °F 17.6 °F 100% 30.47 in 10.0 mi North 17.3 mph 21.9 mph N/A   Overcast
9:05 AM 17.6 °F 0.9 °F 17.6 °F 100% 30.48 in 10.0 mi North 20.7 mph - N/A   Overcast
9:25 AM 17.6 °F 2.7 °F 17.6 °F 100% 30.49 in 10.0 mi NNE 16.1 mph - N/A   Overcast
9:45 AM 17.6 °F 2.7 °F 17.6 °F 100% 30.49 in 10.0 mi NNE 16.1 mph - N/A   Overcast
10:05 AM 17.6 °F 2.2 °F 17.6 °F 100% 30.50 in 10.0 mi NNE 17.3 mph - N/A   Overcast
10:25 AM 17.6 °F 1.7 °F 17.6 °F 100% 30.50 in 10.0 mi NNE 18.4 mph - N/A Snow Light Snow
10:45 AM 17.6 °F 2.2 °F 17.6 °F 100% 30.50 in 10.0 mi NNE 17.3 mph - N/A Snow Light Snow
11:05 AM 17.6 °F 1.7 °F 17.6 °F 100% 30.50 in 10.0 mi NE 18.4 mph - N/A Rain Light Freezing Rain
11:25 AM 19.4 °F 3.6 °F 19.4 °F 100% 30.50 in 10.0 mi NNE 19.6 mph - N/A   Overcast
11:45 AM 19.4 °F 5.0 °F 17.6 °F 93% 30.50 in 10.0 mi NE 16.1 mph 20.7 mph N/A   Mostly Cloudy
12:05 PM 19.4 °F 4.5 °F 15.8 °F 86% 30.50 in 10.0 mi NNE 17.3 mph 21.9 mph N/A   Mostly Cloudy
12:25 PM 19.4 °F 5.0 °F 15.8 °F 86% 30.50 in 10.0 mi NNE 16.1 mph 20.7 mph N/A   Mostly Cloudy
12:45 PM 19.4 °F 6.0 °F 15.8 °F 86% 30.50 in 10.0 mi NE 13.8 mph - N/A   Mostly Cloudy
1:05 PM 21.2 °F 7.3 °F 15.8 °F 80% 30.50 in 10.0 mi NE 16.1 mph 20.7 mph N/A   Mostly Cloudy
1:25 PM 23.0 °F 9.6 °F 17.6 °F 80% 30.49 in 10.0 mi NE 16.1 mph 19.6 mph N/A   Partly Cloudy
1:45 PM 23.0 °F 13.1 °F 15.8 °F 74% 30.49 in 10.0 mi NE 9.2 mph - N/A   Partly Cloudy
2:05 PM 23.0 °F 11.1 °F 15.8 °F 74% 30.48 in 10.0 mi NNE 12.7 mph - N/A   Partly Cloudy
2:25 PM 23.0 °F 11.1 °F 14.0 °F 68% 30.48 in 10.0 mi NE 12.7 mph - N/A   Partly Cloudy
2:45 PM 24.8 °F 14.6 °F 14.0 °F 64% 30.48 in 10.0 mi NNE 10.4 mph - N/A   Clear
3:05 PM 24.8 °F 16.1 °F 14.0 °F 64% 30.48 in 10.0 mi NE 8.1 mph - N/A   Clear
3:25 PM 24.8 °F 15.3 °F 14.0 °F 64% 30.48 in 10.0 mi NNE 9.2 mph 17.3 mph N/A   Clear
3:45 PM 24.8 °F 14.6 °F 14.0 °F 64% 30.48 in 10.0 mi NE 10.4 mph 16.1 mph N/A   Clear
4:05 PM 24.8 °F 14.6 °F 14.0 °F 64% 30.48 in 10.0 mi ENE 10.4 mph - N/A   Clear
4:25 PM 23.0 °F 11.7 °F 12.2 °F 63% 30.48 in 10.0 mi NNE 11.5 mph 17.3 mph N/A   Clear
4:45 PM 23.0 °F 12.4 °F 10.4 °F 59% 30.48 in 10.0 mi NNE 10.4 mph - N/A   Clear
5:05 PM 23.0 °F 13.1 °F 10.4 °F 59% 30.48 in 10.0 mi NNE 9.2 mph - N/A   Clear
5:25 PM 23.0 °F 13.1 °F 10.4 °F 59% 30.48 in 10.0 mi NNE 9.2 mph - N/A   Clear
5:45 PM 19.4 °F 9.5 °F 10.4 °F 68% 30.48 in 10.0 mi NNE 8.1 mph - N/A   Clear
6:05 PM 17.6 °F 8.2 °F 10.4 °F 73% 30.48 in 10.0 mi NNE 6.9 mph - N/A   Clear
6:25 PM 15.8 °F 7.2 °F 10.4 °F 79% 30.48 in 10.0 mi North 5.8 mph - N/A   Clear
6:45 PM 14.0 °F 3.9 °F 8.6 °F 79% 30.49 in 10.0 mi North 6.9 mph - N/A   Clear
7:05 PM 14.0 °F 3.9 °F 8.6 °F 79% 30.49 in 10.0 mi North 6.9 mph - N/A   Clear
7:25 PM 14.0 °F 2.0 °F 8.6 °F 79% 30.49 in 10.0 mi North 9.2 mph - N/A   Clear
7:45 PM 12.2 °F 1.7 °F 8.6 °F 85% 30.49 in 10.0 mi North 6.9 mph - N/A   Clear
8:05 PM 14.0 °F 5.1 °F 8.6 °F 79% 30.49 in 10.0 mi North 5.8 mph - N/A   Clear
8:25 PM 14.0 °F 2.0 °F 8.6 °F 79% 30.49 in 10.0 mi NNE 9.2 mph - N/A   Clear
8:45 PM 10.4 °F -1.5 °F 6.8 °F 85% 30.50 in 10.0 mi NE 8.1 mph - N/A   Clear
9:05 PM 10.4 °F -0.4 °F 6.8 °F 85% 30.50 in 10.0 mi NNE 6.9 mph - N/A   Clear
9:25 PM 8.6 °F -3.7 °F 6.8 °F 92% 30.51 in 10.0 mi NNE 8.1 mph - N/A   Clear
9:45 PM 8.6 °F -1.3 °F 8.6 °F 100% 30.51 in 10.0 mi NNE 5.8 mph - N/A   Clear
10:05 PM 8.6 °F 2.0 °F 8.6 °F 100% 30.51 in 10.0 mi North 3.5 mph - N/A   Clear
10:25 PM 8.6 °F 2.0 °F 8.6 °F 100% 30.51 in 10.0 mi North 3.5 mph - N/A   Clear
10:45 PM 6.8 °F -2.0 °F 6.8 °F 100% 30.50 in 10.0 mi North 4.6 mph - N/A   Clear
11:05 PM 8.6 °F 2.0 °F 8.6 °F 100% 30.50 in 10.0 mi North 3.5 mph - N/A   Clear
11:25 PM 8.6 °F 0.1 °F 6.8 °F 92% 30.49 in 10.0 mi North 4.6 mph - N/A   Clear
11:45 PM 6.8 °F - 6.8 °F 100% 30.49 in 10.0 mi Calm Calm - N/A   Clear